Regional Weather Roundup
Issued by NWS

Home | Current Version | Previous Version | Graphics & Text | Print | Product List | Glossary On
Versions: 1 2 3 4 5 6 7 8 9 10 11 12 13 14 15 16 17 18 19 20 21 22 23 24 25 26 27 28 29 30 31 32 33 34 35 36 37 38 39 40 41 42 43 44 45 46 47 48 49 50
000
ASUS43 KMPX 222101
RWRMN
WEATHER ROUNDUP FOR MINNESOTA
NATIONAL WEATHER SERVICE TWIN CITIES/CHANHASSEN MN
300 PM CST MON DEC 22 2014


NOTE: "FAIR" INDICATES FEW OR NO CLOUDS BELOW 12,000 FEET WITH NO
SIGNIFICANT WEATHER AND/OR OBSTRUCTIONS TO VISIBILITY. N/A MEANS
CURRENT SKY AND/OR WEATHER CONDITIONS ARE NOT AVAILABLE.

MNZ060>063-068>070-222200-
   Twin Cities Metro

CITY           SKY/WX    TMP DP  RH WIND       PRES   REMARKS
TWIN CITIES    LGT RAIN  36  33  89 E10       29.60S FOG
ST PAUL        MIX PCPN  36  34  92 SE9       29.62S FOG
CRYSTAL        LGT RAIN  36  33  89 E10       29.59R FOG
BLAINE         LGT RAIN  37  37 100 E9        29.60S
LAKEVILLE      DRIZZLE   34  34 100 E8        29.58S WCI  27
EDEN PRAIRIE   LGT RAIN  36  33  89 E10       29.57S FOG
SOUTH ST PAUL  DRIZZLE   37  35  94 SE6       29.60S
LAKE ELMO      DRIZZLE   36  36 100 E6        29.62S
$$
MNZ001>005-007-008-013>017-022>024-027-028-222200-
   Northwest Minnesota

CITY           SKY/WX    TMP DP  RH WIND       PRES   REMARKS
BEMIDJI        CLOUDY    35  33  95 SE10      29.58R WCI  27
HALLOCK        CLOUDY    36  34  93 NE7       29.60R FOG
ROSEAU         CLOUDY    36  30  80 NE6       29.62R HAZE
WARROAD        DRIZZLE   34  30  86 E8        29.63R WCI  27
THIEF RVR FALL CLOUDY    36  36 100 E6        29.58R
CROOKSTON      MIX PCPN  37  36  93 E6        29.57R
FOSSTON        CLOUDY    36  36 100 E5        29.57R
DETROIT LAKES  CLOUDY    36  36 100 SE14      29.54R
MOORHEAD       CLOUDY    39  39 100 SE8       29.52R
PARK RAPIDS    LGT RAIN  35  34  96 E9        29.56R FOG     WCI  28
MAHNOMEN       CLOUDY    37  36  95 SE8       29.54R FOG
$$
MNZ006-009>011-018-025>026-222200-
   North Central Minnesota

CITY           SKY/WX    TMP DP  RH WIND       PRES   REMARKS
BAUDETTE       CLOUDY    35  33  92 E7        29.62R WCI  29
FLAG ISLAND    CLOUDY    34  34 100 E7        29.64R FOG     WCI  28
INTL FALLS     MIX PCPN  34  33  96 E7        29.65R WCI  28
WASKISH        CLOUDY    37  36  93 CALM      29.62R
BIG FORK       LGT RAIN  36  34  93 SE6       29.64R
LONGVILLE      DRIZZLE   34  34 100 E5        29.60R WCI  30
GRAND RAPIDS   CLOUDY    34  32  93 SE8       29.62R WCI  27
CRANE LAKE     RAIN      34  34 100 CALM      29.70R
ORR            LGT SNOW  34  30  86 CALM      29.64R
COOK           DRIZZLE   34  34 100 E3        29.66S
WALKER         DRIZZLE   34  33  96 SE5       29.58R WCI  30
$$
MNZ012-019>021-037-222200-
   Northeast Minnesota

CITY           SKY/WX    TMP DP  RH WIND       PRES   REMARKS
DULUTH         FOG       34  32  92 SE14      29.66R VSB 1/4 WCI  25
ELY            LGT RAIN  34  32  93 SE5       29.68R WCI  30
HIBBING        CLOUDY    34  32  92 SE10      29.66R FOG     WCI  26
EVELETH        LGT RAIN  34  34 100 SE5       29.68R WCI  30
DULUTH HARBOR  CLOUDY    36  34  93 CALM      29.70S FOG
SILVER BAY     FOG       36  34  93 NE5       29.70R VSB 3/4
GRAND MARAIS     N/A     37  35  92 E6        29.77R
G MARAIS ARPRT DRZL/FOG  30  28  93 CALM      29.73R VSB<1/4
$$
MNZ029>031-032-039>041-046>048-054>057-064-222200-
   West Central Minnesota

CITY           SKY/WX    TMP DP  RH WIND       PRES   REMARKS
FERGUS FALLS   CLOUDY    36  36 100 SE14      29.53R
WHEATON        LGT RAIN  36  36 100 E20       29.48S
MORRIS         LGT RAIN  36  36 100 SE15      29.48R
ALEXANDRIA     CLOUDY    35  33  92 E12       29.52R WCI  27
ELBOW LAKE     DRIZZLE   35  34  96 E13       29.50R WCI  27
WADENA         DRIZZLE   34  34 100 E12       29.55R WCI  25
GLENWOOD       DRIZZLE   34  34 100 E15       29.52R WCI  24
APPLETON       DRIZZLE   37  36  93 SE13G18   29.47R
BENSON         MIX PCPN  37  36  93 SE14      29.49R
ORTONVILLE     DRIZZLE   37  36  93 E13G18    29.45R
MADISON        LGT RAIN  41  39  93 SE13      29.45R
WILLMAR        LGT RAIN  36  36 100 SE15      29.52R
$$
MNZ033>034-036-042>043-049>051-058-059-222200-
   Central Minnesota

CITY           SKY/WX    TMP DP  RH WIND       PRES   REMARKS
ST CLOUD       MIX PCPN  37  33  85 E7        29.57S FOG
SAUK CENTRE    DRIZZLE   34  33  97 E12       29.54R WCI  25
PAYNESVILLE    DRIZZLE   32  32 100 E13       29.54R WCI  22
AITKIN         MIX PCPN  37  32  81 E6        29.60R
PINE RIVER     DRIZZLE   34  34 100 E8        29.63R WCI  27
BRAINERD       CLOUDY    34  33  96 SE8       29.59R FOG     WCI  27
STAPLES        DRIZZLE   34  34 100 E6        29.56R WCI  29
LONG PRAIRIE   MIX PCPN  32  32 100 E9        29.55R WCI  24
LITTLE FALLS   MIX PCPN  34  32  93 E10       29.58R WCI  26
LITCHFIELD     DRIZZLE   36  36 100 E13       29.54R
BUFFALO        DRIZZLE   35  33  92 E10       29.59R WCI  27
MAPLE LAKE     DRIZZLE   36  35  97 E8        29.58R
$$
MNZ037-044-045-052-053-222200-
   East Central Minnesota

CITY           SKY/WX    TMP DP  RH WIND       PRES   REMARKS
PRINCETON      LGT RAIN  36  34  93 E9        29.60R
MORA           CLOUDY    32  32 100 E7        29.64R WCI  26
CAMBRIDGE      LGT RAIN  36  30  80 E7        29.60R
RUSH CITY      LGT RAIN  35  33  94 E6        29.63S WCI  30
MOOSE LAKE     CLOUDY    34  32  93 E3        29.63S FOG
HINCKLEY       LGT RAIN  34  34 100 E8        29.64R WCI  27
CLOQUET        SNOW      34  34 100 E7        29.65S VSB<1/4 WCI  28
MCGREGOR       CLOUDY    34  34 100 SE12      29.63R WCI  25
$$
MNZ071>073-080-081-089-090-097-098-222200-
   Southwest Minnesota

CITY           SKY/WX    TMP DP  RH WIND       PRES   REMARKS
MONTEVIDEO     DRIZZLE   37  37 100 S13       29.48R
GRANITE FALLS  LGT RAIN  38  37  96 E14G20    29.49R
CANBY          DRIZZLE   38  38  99 SE10      29.44S
MARSHALL       CLOUDY    37  36  93 SE12      29.45R
REDWOOD FALLS  LGT RAIN  38  37  97 SE14      29.49R FOG
OLIVIA         CLOUDY    36  36 100 SE15      29.50R FOG
PIPESTONE      CLOUDY    37  37 100 S8        29.40S FOG
WINDOM         RAIN      37  37 100 SE10G18   29.46S
WORTHINGTON    CLOUDY    39 -11  11 SE12      29.44R
JACKSON        CLOUDY    37  36  93 SE14      29.47R
TRACY          LGT RAIN  39  38  97 SE14      29.45S
SLAYTON        LGT RAIN  37  37 100 SE12      29.44R
$$
MNZ065>067-074>077-082>085-091>093-222200-
   South Central Minnesota

CITY           SKY/WX    TMP DP  RH WIND       PRES   REMARKS
MANKATO        CLOUDY    36  30  80 SE16      29.53S
NEW ULM          N/A    N/A N/A N/A SE12      29.51R
FAIRMONT       CLOUDY    37  34  87 SE14      29.49R
GLENCOE        DRIZZLE   37  37 100 E14       29.55R
FARIBAULT      LGT RAIN  36  34  93 E10G18    29.57S
OWATONNA       LGT RAIN  36  34  93 E10G17    29.56S
WASECA         LGT RAIN  34  34 100 E15       29.56S WCI  24
ALBERT LEA     LGT SNOW  34  34 100 SE13      29.53F WCI  25
$$
MNZ078>079-086>088-094>096-222200-
   Southeast Minnesota

CITY           SKY/WX    TMP DP  RH WIND       PRES   REMARKS
ROCHESTER      LGT RAIN  36  34  92 SE14      29.58S FOG
RED WING       DRIZZLE   37  36  93 SE12      29.61S
STANTON        RAIN      38  34  88 SE8       29.58S
DODGE CENTER   RAIN      36  36 100 SE14      29.56F
WINONA         DRIZZLE   37  36  93 SE12      29.64S
AUSTIN         DRIZZLE   36  34  93 SE10      29.55S
PRESTON        LGT RAIN  35  33  93 E12       29.59S WCI  27
$$
ABBREVIATIONS USED IN REMARKS
   TC - TEMPERATURES IN CELSIUS
  WCI - WIND CHILL INDEX
   HX - HEAT INDEX
  VSB - VISIBILITY
$$


USA.gov is the U.S. government's official web portal to all federal, state and local government web resources and services.